TimeMDT,TemperatureF,Dew PointF,Humidity,Sea Level PressureIn,VisibilityMPH,Wind Direction,Wind SpeedMPH,Gust SpeedMPH,PrecipitationIn,Events,Conditions,WindDirDegrees,DateUTC
12:53 AM,33.1,30.9,92,30.45,10.0,Calm,Calm,-,N/A,,Overcast,0,2012-10-05 06:53:00
1:53 AM,33.8,30.2,87,30.38,10.0,Calm,Calm,-,N/A,,Overcast,0,2012-10-05 07:53:00
2:53 AM,33.1,30.0,89,30.44,10.0,East,4.6,-,N/A,,Overcast,80,2012-10-05 08:53:00
3:53 AM,33.1,28.9,85,30.44,10.0,NE,3.5,-,N/A,,Overcast,40,2012-10-05 09:53:00
4:53 AM,32.0,28.9,88,30.44,10.0,SE,17.3,24.2,N/A,,Overcast,130,2012-10-05 10:53:00
5:02 AM,32.0,28.4,87,30.37,10.0,NE,5.8,61.0,N/A,,Squalls,40,2012-10-05 11:02:00
5:53 AM,33.1,28.0,82,30.45,10.0,NNE,11.5,-,N/A,,Overcast,30,2012-10-05 11:53:00
6:03 AM,33.8,28.4,81,30.38,10.0,NE,10.4,-,N/A,,Overcast,40,2012-10-05 12:03:00
6:53 AM,32.0,28.0,85,30.47,2.0,NE,11.5,-,0.00,Snow,Light Snow,40,2012-10-05 12:53:00
6:57 AM,32.0,28.4,87,30.39,1.2,NE,12.7,-,0.00,Snow,Light Snow,40,2012-10-05 12:57:00
7:07 AM,30.2,28.4,93,30.40,0.8,NE,10.4,-,0.01,Snow,Light Snow,50,2012-10-05 13:07:00
7:17 AM,30.2,30.2,100,30.40,0.5,East,9.2,-,0.03,Fog-Snow,Snow,80,2012-10-05 13:17:00
7:38 AM,30.2,28.4,93,30.40,0.5,East,8.1,-,0.05,Fog-Snow,Snow,80,2012-10-05 13:38:00
7:45 AM,30.2,28.4,93,30.40,1.5,East,8.1,-,N/A,Snow,Light Snow,80,2012-10-05 13:45:00
7:47 AM,30.2,28.4,93,30.40,3.0,ENE,8.1,-,0.05,Snow,Light Snow,70,2012-10-05 13:47:00
7:53 AM,30.0,28.0,92,30.49,7.0,East,9.2,-,0.05,,Mostly Cloudy,90,2012-10-05 13:53:00
8:05 AM,30.2,28.4,93,30.41,10.0,East,8.1,-,N/A,,Mostly Cloudy,100,2012-10-05 14:05:00
8:53 AM,33.1,27.0,78,30.50,10.0,East,8.1,-,N/A,,Overcast,90,2012-10-05 14:53:00
9:53 AM,35.6,26.6,70,30.43,10.0,ESE,3.5,-,N/A,,Partly Cloudy,110,2012-10-05 15:53:00
10:53 AM,39.9,24.1,53,30.51,10.0,Calm,Calm,-,N/A,,Scattered Clouds,0,2012-10-05 16:53:00
11:53 AM,41.0,23.0,49,30.51,10.0,North,4.6,-,N/A,,Partly Cloudy,360,2012-10-05 17:53:00
12:53 PM,43.0,23.0,45,30.50,10.0,North,10.4,16.1,N/A,,Mostly Cloudy,10,2012-10-05 18:53:00
1:53 PM,42.1,21.9,45,30.48,10.0,North,9.2,-,N/A,,Mostly Cloudy,10,2012-10-05 19:53:00
2:53 PM,44.1,21.0,40,30.47,10.0,North,8.1,-,N/A,,Overcast,360,2012-10-05 20:53:00
3:53 PM,43.0,19.9,40,30.47,10.0,North,11.5,-,N/A,,Overcast,10,2012-10-05 21:53:00
4:53 PM,42.1,19.9,41,30.48,10.0,North,9.2,-,N/A,,Mostly Cloudy,350,2012-10-05 22:53:00
5:53 PM,42.1,19.9,41,30.48,10.0,North,11.5,-,N/A,,Partly Cloudy,10,2012-10-05 23:53:00
6:53 PM,35.1,21.0,57,30.50,10.0,North,6.9,-,N/A,,Clear,10,2012-10-06 00:53:00
7:53 PM,30.9,21.0,67,30.52,10.0,NNE,6.9,-,N/A,,Clear,30,2012-10-06 01:53:00
8:53 PM,28.0,19.9,72,30.52,10.0,NE,8.1,-,N/A,,Clear,40,2012-10-06 02:53:00
9:53 PM,28.0,19.9,72,30.52,10.0,ENE,8.1,-,N/A,,Clear,60,2012-10-06 03:53:00
10:53 PM,28.9,19.9,69,30.51,10.0,East,3.5,-,N/A,,Clear,90,2012-10-06 04:53:00
11:53 PM,28.0,19.9,72,30.51,10.0,ESE,3.5,-,N/A,,Clear,120,2012-10-06 05:53:00